Location: Berg
(48.4333°N, 13.9167°E)
Time: 05:22:19
(UTC+00:00)

CZ-2C R/B - Pass Details

Date: 18 September 2020
Orbit: 785 x 870 km, 98.2° (Epoch: 22 October)

Event Time Altitude Azimuth Distance (km) Brightness Sun altitude
Rises 19:15:58 0° 11° (NNE) 3,408 6.1 -20.9°
Reaches altitude 10° 19:18:20 10° 9° (N) 2,481 5.4 -21.2°
Maximum altitude 19:23:48 68° 288° (WNW) 926 3.0 -22.0°
Drops below altitude 10° 19:29:20 10° 207° (SSW) 2,503 5.1 -22.8°
Sets 19:31:44 0° 205° (SSW) 3,441 5.8 -23.1°
